Year,Month,Day,Hour,Minute,Value (Times are PST for temperature in C)
2015,12,18,00,00,6.60
2015,12,18,00,02,6.60
2015,12,18,00,03,6.60
2015,12,18,00,04,6.70
2015,12,18,00,06,6.80
2015,12,18,00,07,6.80
2015,12,18,00,09,6.90
2015,12,18,00,10,6.90
2015,12,18,00,12,6.90
2015,12,18,00,13,6.90
2015,12,18,00,14,6.90
2015,12,18,00,16,7.00
2015,12,18,00,17,7.00
2015,12,18,00,18,6.90
2015,12,18,00,19,6.90
2015,12,18,00,21,6.90
2015,12,18,00,22,6.90
2015,12,18,00,23,6.90
2015,12,18,00,24,6.90
2015,12,18,00,26,6.80
2015,12,18,00,27,6.80
2015,12,18,00,28,6.80
2015,12,18,00,29,6.80
2015,12,18,00,31,6.80
2015,12,18,00,32,6.80
2015,12,18,00,33,6.80
2015,12,18,00,34,6.80
2015,12,18,00,36,6.80
2015,12,18,00,37,6.80
2015,12,18,00,38,6.80
2015,12,18,00,39,6.80
2015,12,18,00,41,6.80
2015,12,18,00,42,6.80
2015,12,18,00,43,6.70
2015,12,18,00,44,6.70
2015,12,18,00,46,6.70
2015,12,18,00,47,6.70
2015,12,18,00,48,6.70
2015,12,18,00,49,6.70
2015,12,18,00,51,6.70
2015,12,18,00,52,6.70
2015,12,18,00,53,6.70
2015,12,18,00,54,6.70
2015,12,18,00,56,6.70
2015,12,18,00,57,6.70
2015,12,18,00,58,6.70
2015,12,18,00,59,6.70
2015,12,18,01,01,6.70
2015,12,18,01,02,6.70
2015,12,18,01,03,6.70
2015,12,18,01,04,6.80
2015,12,18,01,06,6.80
2015,12,18,01,07,6.80
2015,12,18,01,08,6.80
2015,12,18,01,09,6.80
2015,12,18,01,11,6.70
2015,12,18,01,12,6.70
2015,12,18,01,13,6.70
2015,12,18,01,14,6.70
2015,12,18,01,16,6.70
2015,12,18,01,17,6.70
2015,12,18,01,18,6.70
2015,12,18,01,19,6.70
2015,12,18,01,21,6.70
2015,12,18,01,22,6.60
2015,12,18,01,23,6.60
2015,12,18,01,24,6.60
2015,12,18,01,25,6.60
2015,12,18,01,26,6.60
2015,12,18,01,27,6.60
2015,12,18,01,28,6.60
2015,12,18,01,29,6.60
2015,12,18,01,31,6.60
2015,12,18,01,32,6.60
2015,12,18,01,33,6.60
2015,12,18,01,34,6.60
2015,12,18,01,36,6.60
2015,12,18,01,37,6.60
2015,12,18,01,38,6.60
2015,12,18,01,39,6.60
2015,12,18,01,40,6.60
2015,12,18,01,41,6.60
2015,12,18,01,42,6.60
2015,12,18,01,43,6.60
2015,12,18,01,44,6.60
2015,12,18,01,45,6.60
2015,12,18,01,46,6.60
2015,12,18,01,47,6.60
2015,12,18,01,48,6.60
2015,12,18,01,49,6.60
2015,12,18,01,50,6.60
2015,12,18,01,51,6.60
2015,12,18,01,52,6.60
2015,12,18,01,53,6.60
2015,12,18,01,54,6.60
2015,12,18,01,55,6.60
2015,12,18,01,56,6.60
2015,12,18,01,57,6.60
2015,12,18,01,58,6.60
2015,12,18,01,59,6.60
2015,12,18,02,00,6.60
2015,12,18,02,01,6.60
2015,12,18,02,02,6.70
2015,12,18,02,03,6.70
2015,12,18,02,04,6.70
2015,12,18,02,05,6.70
2015,12,18,02,06,6.70
2015,12,18,02,07,6.80
2015,12,18,02,08,6.80
2015,12,18,02,09,6.80
2015,12,18,02,10,6.80
2015,12,18,02,11,6.80
2015,12,18,02,12,6.80
2015,12,18,02,13,6.80
2015,12,18,02,14,6.80
2015,12,18,02,15,6.80
2015,12,18,02,16,6.80
2015,12,18,02,17,6.90
2015,12,18,02,18,6.90
2015,12,18,02,19,7.00
2015,12,18,02,20,7.00
2015,12,18,02,21,7.10
2015,12,18,02,22,7.10
2015,12,18,02,23,7.10
2015,12,18,02,24,7.20
2015,12,18,02,25,7.20
2015,12,18,02,26,7.20
2015,12,18,02,27,7.20
2015,12,18,02,28,7.20
2015,12,18,02,29,7.20
2015,12,18,02,30,7.20
2015,12,18,02,31,7.20
2015,12,18,02,32,7.10
2015,12,18,02,33,7.10
2015,12,18,02,34,7.10
2015,12,18,02,35,7.10
2015,12,18,02,36,7.10
2015,12,18,02,38,7.00
2015,12,18,02,39,7.00
2015,12,18,02,41,7.00
2015,12,18,02,42,7.00
2015,12,18,02,43,7.00
2015,12,18,02,44,7.00
2015,12,18,02,46,6.90
2015,12,18,02,47,6.90
2015,12,18,02,48,6.90
2015,12,18,02,49,6.90
2015,12,18,02,51,6.80
2015,12,18,02,52,6.80
2015,12,18,02,53,6.80
2015,12,18,02,54,6.80
2015,12,18,02,56,6.80
2015,12,18,02,57,6.80
2015,12,18,02,58,6.80
2015,12,18,02,59,6.80
2015,12,18,03,01,6.80
2015,12,18,03,02,6.80
2015,12,18,03,03,6.80
2015,12,18,03,04,6.80
2015,12,18,03,06,6.70
2015,12,18,03,07,6.60
2015,12,18,03,08,6.60
2015,12,18,03,09,6.60
2015,12,18,03,11,6.60
2015,12,18,03,12,6.60
2015,12,18,03,13,6.40
2015,12,18,03,14,6.40
2015,12,18,03,16,6.40
2015,12,18,03,17,6.40
2015,12,18,03,18,6.40
2015,12,18,03,19,6.40
2015,12,18,03,21,6.30
2015,12,18,03,22,6.30
2015,12,18,03,23,6.30
2015,12,18,03,24,6.30
2015,12,18,03,26,6.30
2015,12,18,03,27,6.30
2015,12,18,03,28,6.30
2015,12,18,03,29,6.30
2015,12,18,03,31,6.20
2015,12,18,03,32,6.20
2015,12,18,03,33,6.20
2015,12,18,03,34,6.20
2015,12,18,03,36,6.20
2015,12,18,03,37,6.20
2015,12,18,03,38,6.20
2015,12,18,03,39,6.20
2015,12,18,03,41,6.20
2015,12,18,03,42,6.20
2015,12,18,03,43,6.20
2015,12,18,03,44,6.20
2015,12,18,03,46,6.20
2015,12,18,03,47,6.20
2015,12,18,03,48,6.20
2015,12,18,03,49,6.20
2015,12,18,03,51,6.20
2015,12,18,03,52,6.20
2015,12,18,03,53,6.20
2015,12,18,03,54,6.20
2015,12,18,03,55,6.20
2015,12,18,03,56,6.20
2015,12,18,03,57,6.20
2015,12,18,03,58,6.20
2015,12,18,03,59,6.20
2015,12,18,04,00,6.20
2015,12,18,04,01,6.20
2015,12,18,04,02,6.20
2015,12,18,04,03,6.20
2015,12,18,04,04,6.10
2015,12,18,04,06,6.10
2015,12,18,04,07,6.10
2015,12,18,04,08,6.10
2015,12,18,04,09,6.10
2015,12,18,04,10,6.10
2015,12,18,04,11,6.20
2015,12,18,04,12,6.20
2015,12,18,04,13,6.20
2015,12,18,04,14,6.20
2015,12,18,04,15,6.20
2015,12,18,04,16,6.20
2015,12,18,04,17,6.20
2015,12,18,04,18,6.20
2015,12,18,04,19,6.20
2015,12,18,04,20,6.20
2015,12,18,04,21,6.20
2015,12,18,04,22,6.20
2015,12,18,04,23,6.20
2015,12,18,04,24,6.20
2015,12,18,04,25,6.20
2015,12,18,04,26,6.20
2015,12,18,04,27,6.20
2015,12,18,04,28,6.20
2015,12,18,04,29,6.20
2015,12,18,04,30,6.20
2015,12,18,04,31,6.30
2015,12,18,04,32,6.30
2015,12,18,04,33,6.30
2015,12,18,04,34,6.30
2015,12,18,04,35,6.30
2015,12,18,04,36,6.30
2015,12,18,04,37,6.40
2015,12,18,04,38,6.40
2015,12,18,04,39,6.40
2015,12,18,04,40,6.40
2015,12,18,04,41,6.40
2015,12,18,04,42,6.60
2015,12,18,04,43,6.60
2015,12,18,04,44,6.60
2015,12,18,04,45,6.60
2015,12,18,04,46,6.60
2015,12,18,04,47,6.70
2015,12,18,04,48,6.70
2015,12,18,04,49,6.70
2015,12,18,04,50,6.70
2015,12,18,04,51,6.70
2015,12,18,04,52,6.70
2015,12,18,04,53,6.70
2015,12,18,04,54,6.70
2015,12,18,04,55,6.80
2015,12,18,04,56,6.80
2015,12,18,04,57,6.80
2015,12,18,04,58,6.80
2015,12,18,04,59,6.80
2015,12,18,05,00,6.80
2015,12,18,05,01,6.70
2015,12,18,05,02,6.70
2015,12,18,05,03,6.70
2015,12,18,05,04,6.70
2015,12,18,05,05,6.70
2015,12,18,05,06,6.70
2015,12,18,05,07,6.60
2015,12,18,05,08,6.60
2015,12,18,05,09,6.60
2015,12,18,05,10,6.60
2015,12,18,05,11,6.60
2015,12,18,05,12,6.60
2015,12,18,05,13,6.60
2015,12,18,05,14,6.60
2015,12,18,05,15,6.60
2015,12,18,05,16,6.60
2015,12,18,05,17,6.40
2015,12,18,05,18,6.40
2015,12,18,05,19,6.40
2015,12,18,05,20,6.40
2015,12,18,05,21,6.40
2015,12,18,05,22,6.40
2015,12,18,05,23,6.40
2015,12,18,05,24,6.40
2015,12,18,05,25,6.60
2015,12,18,05,26,6.60
2015,12,18,05,27,6.60
2015,12,18,05,28,6.60
2015,12,18,05,29,6.60
2015,12,18,05,31,6.60
2015,12,18,05,32,6.60
2015,12,18,05,33,6.70
2015,12,18,05,34,6.70
2015,12,18,05,36,6.70
2015,12,18,05,37,6.70
2015,12,18,05,38,6.70
2015,12,18,05,39,6.70
2015,12,18,05,41,6.70
2015,12,18,05,42,6.70
2015,12,18,05,43,6.70
2015,12,18,05,44,6.70
2015,12,18,05,46,6.70
2015,12,18,05,47,6.70
2015,12,18,05,48,6.70
2015,12,18,05,49,6.70
2015,12,18,05,51,6.70
2015,12,18,05,52,6.70
2015,12,18,05,53,6.70
2015,12,18,05,54,6.70
2015,12,18,05,56,6.70
2015,12,18,05,57,6.70
2015,12,18,05,58,6.60
2015,12,18,05,59,6.70
2015,12,18,06,01,6.60
2015,12,18,06,02,6.60
2015,12,18,06,03,6.60
2015,12,18,06,04,6.60
2015,12,18,06,06,6.60
2015,12,18,06,07,6.60
2015,12,18,06,08,6.60
2015,12,18,06,09,6.60
2015,12,18,06,11,6.60
2015,12,18,06,12,6.60
2015,12,18,06,13,6.60
2015,12,18,06,14,6.60
2015,12,18,06,16,6.60
2015,12,18,06,17,6.70
2015,12,18,06,18,6.70
2015,12,18,06,19,6.70
2015,12,18,06,21,6.70
2015,12,18,06,22,6.80
2015,12,18,06,23,6.80
2015,12,18,06,24,6.80
2015,12,18,06,26,6.80
2015,12,18,06,27,6.80
2015,12,18,06,28,6.90
2015,12,18,06,29,6.90
2015,12,18,06,31,6.90
2015,12,18,06,32,7.00
2015,12,18,06,33,7.00
2015,12,18,06,34,7.00
2015,12,18,06,36,7.00
2015,12,18,06,37,7.00
2015,12,18,06,38,7.00
2015,12,18,06,39,7.00
2015,12,18,06,41,7.10
2015,12,18,06,42,7.10
2015,12,18,06,43,7.10
2015,12,18,06,44,7.10
2015,12,18,06,45,7.10
2015,12,18,06,46,7.20
2015,12,18,06,47,7.20
2015,12,18,06,48,7.20
2015,12,18,06,49,7.20
2015,12,18,06,51,7.20
2015,12,18,06,52,7.20
2015,12,18,06,53,7.20
2015,12,18,06,54,7.20
2015,12,18,06,55,7.20
2015,12,18,06,56,7.20
2015,12,18,06,57,7.20
2015,12,18,06,58,7.20
2015,12,18,06,59,7.20
2015,12,18,07,00,7.20
2015,12,18,07,01,7.20
2015,12,18,07,02,7.20
2015,12,18,07,03,7.20
2015,12,18,07,04,7.20
2015,12,18,07,06,7.20
2015,12,18,07,07,7.20
2015,12,18,07,08,7.20
2015,12,18,07,09,7.20
2015,12,18,07,10,7.20
2015,12,18,07,11,7.20
2015,12,18,07,12,7.20
2015,12,18,07,13,7.20
2015,12,18,07,14,7.20
2015,12,18,07,15,7.20
2015,12,18,07,16,7.20
2015,12,18,07,17,7.20
2015,12,18,07,18,7.30
2015,12,18,07,19,7.30
2015,12,18,07,20,7.30
2015,12,18,07,21,7.30
2015,12,18,07,22,7.30
2015,12,18,07,23,7.30
2015,12,18,07,24,7.30
2015,12,18,07,25,7.30
2015,12,18,07,26,7.30
2015,12,18,07,27,7.30
2015,12,18,07,28,7.30
2015,12,18,07,29,7.30
2015,12,18,07,30,7.30
2015,12,18,07,31,7.30
2015,12,18,07,32,7.30
2015,12,18,07,33,7.30
2015,12,18,07,34,7.30
2015,12,18,07,35,7.30
2015,12,18,07,36,7.30
2015,12,18,07,37,7.30
2015,12,18,07,38,7.30
2015,12,18,07,39,7.30
2015,12,18,07,40,7.30
2015,12,18,07,41,7.30
2015,12,18,07,42,7.30
2015,12,18,07,43,7.30
2015,12,18,07,44,7.40
2015,12,18,07,45,7.40
2015,12,18,07,46,7.50
2015,12,18,07,47,7.50
2015,12,18,07,48,7.60
2015,12,18,07,49,7.60
2015,12,18,07,50,7.60
2015,12,18,07,51,7.60
2015,12,18,07,52,7.70
2015,12,18,07,53,7.70
2015,12,18,07,54,7.70
2015,12,18,07,55,7.70
2015,12,18,07,56,7.70
2015,12,18,07,57,7.80
2015,12,18,07,58,7.80
2015,12,18,07,59,7.80
2015,12,18,08,00,7.80
2015,12,18,08,01,7.80
2015,12,18,08,02,7.80
2015,12,18,08,03,7.90
2015,12,18,08,04,7.90
2015,12,18,08,05,7.90
2015,12,18,08,06,7.90
2015,12,18,08,07,7.90
2015,12,18,08,08,7.90
2015,12,18,08,09,7.90
2015,12,18,08,11,7.80
2015,12,18,08,12,7.80
2015,12,18,08,13,7.80
2015,12,18,08,14,7.80
2015,12,18,08,16,7.80
2015,12,18,08,17,7.80
2015,12,18,08,18,7.80
2015,12,18,08,19,7.80
2015,12,18,08,21,7.80
2015,12,18,08,22,7.80
2015,12,18,08,23,7.80
2015,12,18,08,24,7.80
2015,12,18,08,26,7.70
2015,12,18,08,27,7.70
2015,12,18,08,28,7.70
2015,12,18,08,29,7.70
2015,12,18,08,31,7.70
2015,12,18,08,32,7.70
2015,12,18,08,33,7.70
2015,12,18,08,34,7.70
2015,12,18,08,36,7.80
2015,12,18,08,37,7.80
2015,12,18,08,38,7.80
2015,12,18,08,39,7.80
2015,12,18,08,41,7.80
2015,12,18,08,42,7.80
2015,12,18,08,43,7.80
2015,12,18,08,44,7.80
2015,12,18,08,46,7.80
2015,12,18,08,47,7.80
2015,12,18,08,48,7.80
2015,12,18,08,49,7.80
2015,12,18,08,51,7.90
2015,12,18,08,52,7.90
2015,12,18,08,53,7.90
2015,12,18,08,54,7.90
2015,12,18,08,56,7.90
2015,12,18,08,57,7.90
2015,12,18,08,58,7.90
2015,12,18,08,59,7.90
2015,12,18,09,01,7.90
2015,12,18,09,02,7.90
2015,12,18,09,03,7.90
2015,12,18,09,04,8.00
2015,12,18,09,06,8.00
2015,12,18,09,07,8.00
2015,12,18,09,08,8.00
2015,12,18,09,09,8.00
2015,12,18,09,11,8.00
2015,12,18,09,12,8.00
2015,12,18,09,13,8.00
2015,12,18,09,14,8.00
2015,12,18,09,16,8.00
2015,12,18,09,17,8.00
2015,12,18,09,18,8.00
2015,12,18,09,19,8.00
2015,12,18,09,21,8.00
2015,12,18,09,22,8.00
2015,12,18,09,23,8.00
2015,12,18,09,24,8.00
2015,12,18,09,26,8.00
2015,12,18,09,27,8.10
2015,12,18,09,28,8.10
2015,12,18,09,29,8.10
2015,12,18,09,30,8.10
2015,12,18,09,31,8.10
2015,12,18,09,32,8.10
2015,12,18,09,33,8.20
2015,12,18,09,34,8.20
2015,12,18,09,36,8.20
2015,12,18,09,37,8.20
2015,12,18,09,38,8.20
2015,12,18,09,39,8.20
2015,12,18,09,40,8.20
2015,12,18,09,41,8.20
2015,12,18,09,42,8.20
2015,12,18,09,43,8.20
2015,12,18,09,44,8.20
2015,12,18,09,45,8.20
2015,12,18,09,46,8.20
2015,12,18,09,47,8.20
2015,12,18,09,48,8.20
2015,12,18,09,49,8.20
2015,12,18,09,50,8.20
2015,12,18,09,51,8.20
2015,12,18,09,52,8.20
2015,12,18,09,53,8.20
2015,12,18,09,54,8.30
2015,12,18,09,55,8.30
2015,12,18,09,56,8.30
2015,12,18,09,57,8.30
2015,12,18,09,58,8.30
2015,12,18,09,59,8.40
2015,12,18,10,00,8.40
2015,12,18,10,01,8.40
2015,12,18,10,02,8.50
2015,12,18,10,03,8.50
2015,12,18,10,04,8.50
2015,12,18,10,05,8.50
2015,12,18,10,06,8.50
2015,12,18,10,07,8.50
2015,12,18,10,08,8.50
2015,12,18,10,09,8.50
2015,12,18,10,10,8.60
2015,12,18,10,11,8.60
2015,12,18,10,12,8.60
2015,12,18,10,13,8.60
2015,12,18,10,14,8.60
2015,12,18,10,15,8.60
2015,12,18,10,16,8.60
2015,12,18,10,17,8.60
2015,12,18,10,18,8.60
2015,12,18,10,19,8.60
2015,12,18,10,20,8.60
2015,12,18,10,21,8.70
2015,12,18,10,22,8.70
2015,12,18,10,23,8.70
2015,12,18,10,24,8.70
2015,12,18,10,25,8.70
2015,12,18,10,26,8.70
2015,12,18,10,27,8.70
2015,12,18,10,28,8.70
2015,12,18,10,29,8.70
2015,12,18,10,30,8.70
2015,12,18,10,31,8.70
2015,12,18,10,32,8.70
2015,12,18,10,33,8.70
2015,12,18,10,34,8.70
2015,12,18,10,35,8.70
2015,12,18,10,36,8.70
2015,12,18,10,37,8.70
2015,12,18,10,38,8.70
2015,12,18,10,39,8.70
2015,12,18,10,40,8.70
2015,12,18,10,41,8.70
2015,12,18,10,42,8.80
2015,12,18,10,43,8.80
2015,12,18,10,44,8.80
2015,12,18,10,45,8.80
2015,12,18,10,46,8.80
2015,12,18,10,47,8.70
2015,12,18,10,48,8.70
2015,12,18,10,49,8.70
2015,12,18,10,50,8.70
2015,12,18,10,51,8.70
2015,12,18,10,52,8.70
2015,12,18,10,53,8.70
2015,12,18,10,54,8.70
2015,12,18,10,55,8.70
2015,12,18,10,56,8.70
2015,12,18,10,57,8.70
2015,12,18,10,58,8.70
2015,12,18,10,59,8.70
2015,12,18,11,00,8.70
2015,12,18,11,02,8.70
2015,12,18,11,03,8.70
2015,12,18,11,04,8.70
2015,12,18,11,06,8.70
2015,12,18,11,07,8.70
2015,12,18,11,08,8.70
2015,12,18,11,09,8.70
2015,12,18,11,11,8.70
2015,12,18,11,12,8.70
2015,12,18,11,13,8.70
2015,12,18,11,14,8.70
2015,12,18,11,16,8.70
2015,12,18,11,17,8.70
2015,12,18,11,18,8.80
2015,12,18,11,19,8.80
2015,12,18,11,21,8.80
2015,12,18,11,22,8.80
2015,12,18,11,23,8.80
2015,12,18,11,24,8.80
2015,12,18,11,26,8.80
2015,12,18,11,27,8.80
2015,12,18,11,28,8.80
2015,12,18,11,29,8.80
2015,12,18,11,31,8.80
2015,12,18,11,32,8.80
2015,12,18,11,33,8.80
2015,12,18,11,34,8.80
2015,12,18,11,36,8.80
2015,12,18,11,37,8.80
2015,12,18,11,38,8.80
2015,12,18,11,39,8.80
2015,12,18,11,41,8.80
2015,12,18,11,42,8.80
2015,12,18,11,43,8.70
2015,12,18,11,44,8.70
2015,12,18,11,46,8.70
2015,12,18,11,47,8.70
2015,12,18,11,48,8.70
2015,12,18,11,49,8.70
2015,12,18,11,51,8.70
2015,12,18,11,52,8.70
2015,12,18,11,53,8.60
2015,12,18,11,54,8.50
2015,12,18,11,56,8.50
2015,12,18,11,57,8.50
2015,12,18,11,58,8.50
2015,12,18,11,59,8.50
2015,12,18,12,01,8.40
2015,12,18,12,02,8.40
2015,12,18,12,03,8.30
2015,12,18,12,04,8.30
2015,12,18,12,06,8.20
2015,12,18,12,07,8.20
2015,12,18,12,08,8.20
2015,12,18,12,09,8.20
2015,12,18,12,11,8.10
2015,12,18,12,12,8.10
2015,12,18,12,13,8.10
2015,12,18,12,14,8.10
2015,12,18,12,16,8.10
2015,12,18,12,17,8.10
2015,12,18,12,18,8.10
2015,12,18,12,19,8.10
2015,12,18,12,20,8.10
2015,12,18,12,21,8.10
2015,12,18,12,22,8.10
2015,12,18,12,23,8.10
2015,12,18,12,24,8.10
2015,12,18,12,25,8.10
2015,12,18,12,26,8.20
2015,12,18,12,27,8.20
2015,12,18,12,28,8.20
2015,12,18,12,29,8.20
2015,12,18,12,30,8.20
2015,12,18,12,31,8.20
2015,12,18,12,32,8.20
2015,12,18,12,33,8.30
2015,12,18,12,34,8.30
2015,12,18,12,36,8.40
2015,12,18,12,37,8.50
2015,12,18,12,38,8.50
2015,12,18,12,39,8.60
2015,12,18,12,40,8.60
2015,12,18,12,41,8.60
2015,12,18,12,42,8.60
2015,12,18,12,43,8.70
2015,12,18,12,44,8.70
2015,12,18,12,45,8.70
2015,12,18,12,46,8.70
2015,12,18,12,47,8.70
2015,12,18,12,48,8.70
2015,12,18,12,49,8.70
2015,12,18,12,50,8.70
2015,12,18,12,51,8.70
2015,12,18,12,52,8.70
2015,12,18,12,53,8.70
2015,12,18,12,54,8.70
2015,12,18,12,55,8.70
2015,12,18,12,56,8.70
2015,12,18,12,57,8.70
2015,12,18,12,58,8.70
2015,12,18,12,59,8.80
2015,12,18,13,00,8.80
2015,12,18,13,01,8.90
2015,12,18,13,02,8.90
2015,12,18,13,03,8.90
2015,12,18,13,04,9.00
2015,12,18,13,05,9.00
2015,12,18,13,06,9.00
2015,12,18,13,07,9.00
2015,12,18,13,08,9.00
2015,12,18,13,09,9.10
2015,12,18,13,10,9.10
2015,12,18,13,11,9.10
2015,12,18,13,12,9.10
2015,12,18,13,13,9.10
2015,12,18,13,14,9.10
2015,12,18,13,15,9.10
2015,12,18,13,16,9.20
2015,12,18,13,17,9.20
2015,12,18,13,18,9.20
2015,12,18,13,19,9.20
2015,12,18,13,20,9.20
2015,12,18,13,21,9.20
2015,12,18,13,22,9.20
2015,12,18,13,23,9.20
2015,12,18,13,24,9.10
2015,12,18,13,25,9.10
2015,12,18,13,26,9.10
2015,12,18,13,27,9.00
2015,12,18,13,28,9.00
2015,12,18,13,29,9.00
2015,12,18,13,30,9.00
2015,12,18,13,31,9.00
2015,12,18,13,32,9.00
2015,12,18,13,33,9.00
2015,12,18,13,34,9.00
2015,12,18,13,35,9.00
2015,12,18,13,36,9.00
2015,12,18,13,37,9.00
2015,12,18,13,38,9.00
2015,12,18,13,39,9.00
2015,12,18,13,40,9.10
2015,12,18,13,41,9.10
2015,12,18,13,42,9.10
2015,12,18,13,43,9.20
2015,12,18,13,44,9.20
2015,12,18,13,45,9.20
2015,12,18,13,46,9.20
2015,12,18,13,47,9.20
2015,12,18,13,48,9.20
2015,12,18,13,49,9.20
2015,12,18,13,50,9.20
2015,12,18,13,51,9.20
2015,12,18,13,53,9.20
2015,12,18,13,54,9.10
2015,12,18,13,56,9.10
2015,12,18,13,57,9.10
2015,12,18,13,58,9.00
2015,12,18,13,59,9.00
2015,12,18,14,01,8.90
2015,12,18,14,02,8.90
2015,12,18,14,03,8.90
2015,12,18,14,04,8.90
2015,12,18,14,06,8.80
2015,12,18,14,07,8.80
2015,12,18,14,08,8.70
2015,12,18,14,09,8.70
2015,12,18,14,11,8.70
2015,12,18,14,12,8.70
2015,12,18,14,13,8.70
2015,12,18,14,14,8.70
2015,12,18,14,16,8.60
2015,12,18,14,17,8.50
2015,12,18,14,18,8.40
2015,12,18,14,19,8.40
2015,12,18,14,21,8.30
2015,12,18,14,22,8.30
2015,12,18,14,23,8.30
2015,12,18,14,24,8.30
2015,12,18,14,26,8.20
2015,12,18,14,27,8.20
2015,12,18,14,28,8.20
2015,12,18,14,29,8.20
2015,12,18,14,31,8.10
2015,12,18,14,32,8.10
2015,12,18,14,33,8.10
2015,12,18,14,34,8.00
2015,12,18,14,36,8.00
2015,12,18,14,37,7.90
2015,12,18,14,38,7.90
2015,12,18,14,39,7.90
2015,12,18,14,41,7.90
2015,12,18,14,42,7.80
2015,12,18,14,43,7.80
2015,12,18,14,44,7.80
2015,12,18,14,46,7.80
2015,12,18,14,47,7.80
2015,12,18,14,48,7.80
2015,12,18,14,49,7.80
2015,12,18,14,51,7.80
2015,12,18,14,52,7.80
2015,12,18,14,53,7.80
2015,12,18,14,54,7.80
2015,12,18,14,56,7.80
2015,12,18,14,57,7.80
2015,12,18,14,58,7.80
2015,12,18,14,59,7.80
2015,12,18,15,01,7.80
2015,12,18,15,02,7.80
2015,12,18,15,03,7.80
2015,12,18,15,04,7.80
2015,12,18,15,06,7.80
2015,12,18,15,07,7.80
2015,12,18,15,08,7.80
2015,12,18,15,09,7.80
2015,12,18,15,11,7.70
2015,12,18,15,12,7.70
2015,12,18,15,13,7.70
2015,12,18,15,14,7.70
2015,12,18,15,15,7.70
2015,12,18,15,16,7.70
2015,12,18,15,17,7.70
2015,12,18,15,18,7.70
2015,12,18,15,19,7.70
2015,12,18,15,20,7.70
2015,12,18,15,21,7.70
2015,12,18,15,22,7.60
2015,12,18,15,23,7.50
2015,12,18,15,24,7.40
2015,12,18,15,25,7.30
2015,12,18,15,26,7.30
2015,12,18,15,27,7.20
2015,12,18,15,28,7.10
2015,12,18,15,29,7.00
2015,12,18,15,30,6.90
2015,12,18,15,31,6.80
2015,12,18,15,32,6.80
2015,12,18,15,33,6.80
2015,12,18,15,34,6.70
2015,12,18,15,35,6.60
2015,12,18,15,36,6.60
2015,12,18,15,37,6.40
2015,12,18,15,38,6.40
2015,12,18,15,39,6.30
2015,12,18,15,40,6.30
2015,12,18,15,41,6.20
2015,12,18,15,42,6.20
2015,12,18,15,43,6.20
2015,12,18,15,44,6.20
2015,12,18,15,45,6.10
2015,12,18,15,46,6.10
2015,12,18,15,47,6.00
2015,12,18,15,48,6.00
2015,12,18,15,49,6.00
2015,12,18,15,50,5.90
2015,12,18,15,51,5.90
2015,12,18,15,52,5.90
2015,12,18,15,53,5.80
2015,12,18,15,54,5.80
2015,12,18,15,55,5.80
2015,12,18,15,56,5.80
2015,12,18,15,57,5.70
2015,12,18,15,58,5.70
2015,12,18,15,59,5.70
2015,12,18,16,00,5.70
2015,12,18,16,01,5.70
2015,12,18,16,02,5.70
2015,12,18,16,03,5.70
2015,12,18,16,04,5.70
2015,12,18,16,05,5.70
2015,12,18,16,06,5.70
2015,12,18,16,07,5.70
2015,12,18,16,08,5.70
2015,12,18,16,09,5.70
2015,12,18,16,10,5.70
2015,12,18,16,11,5.70
2015,12,18,16,12,5.70
2015,12,18,16,13,5.70
2015,12,18,16,14,5.70
2015,12,18,16,15,5.70
2015,12,18,16,16,5.70
2015,12,18,16,17,5.70
2015,12,18,16,18,5.70
2015,12,18,16,19,5.70
2015,12,18,16,20,5.70
2015,12,18,16,21,5.70
2015,12,18,16,22,5.70
2015,12,18,16,23,5.70
2015,12,18,16,24,5.70
2015,12,18,16,25,5.70
2015,12,18,16,26,5.60
2015,12,18,16,27,5.60
2015,12,18,16,28,5.50
2015,12,18,16,29,5.50
2015,12,18,16,30,5.40
2015,12,18,16,31,5.40
2015,12,18,16,32,5.30
2015,12,18,16,33,5.30
2015,12,18,16,34,5.30
2015,12,18,16,35,5.30
2015,12,18,16,36,5.20
2015,12,18,16,38,5.10
2015,12,18,16,39,5.10
2015,12,18,16,41,5.10
2015,12,18,16,42,5.10
2015,12,18,16,43,4.90
2015,12,18,16,44,4.90
2015,12,18,16,46,4.90
2015,12,18,16,47,4.90
2015,12,18,16,48,4.90
2015,12,18,16,49,4.90
2015,12,18,16,51,4.90
2015,12,18,16,52,4.90
2015,12,18,16,53,4.90
2015,12,18,16,54,4.90
2015,12,18,16,56,4.90
2015,12,18,16,57,4.90
2015,12,18,16,58,4.80
2015,12,18,16,59,4.80
2015,12,18,17,01,4.80
2015,12,18,17,02,4.80
2015,12,18,17,03,4.80
2015,12,18,17,04,4.80
2015,12,18,17,06,4.80
2015,12,18,17,07,4.80
2015,12,18,17,08,4.80
2015,12,18,17,09,4.80
2015,12,18,17,11,4.70
2015,12,18,17,12,4.70
2015,12,18,17,13,4.70
2015,12,18,17,14,4.70
2015,12,18,17,16,4.70
2015,12,18,17,17,4.70
2015,12,18,17,18,4.70
2015,12,18,17,19,4.70
2015,12,18,17,21,4.60
2015,12,18,17,22,4.60
2015,12,18,17,23,4.60
2015,12,18,17,24,4.60
2015,12,18,17,26,4.60
2015,12,18,17,27,4.60
2015,12,18,17,28,4.50
2015,12,18,17,29,4.50
2015,12,18,17,31,4.40
2015,12,18,17,32,4.40
2015,12,18,17,33,4.40
2015,12,18,17,34,4.40
2015,12,18,17,36,4.30
2015,12,18,17,37,4.30
2015,12,18,17,38,4.20
2015,12,18,17,39,4.20
2015,12,18,17,41,4.20
2015,12,18,17,42,4.20
2015,12,18,17,43,4.20
2015,12,18,17,44,4.20
2015,12,18,17,46,4.30
2015,12,18,17,47,4.30
2015,12,18,17,48,4.30
2015,12,18,17,49,4.30
2015,12,18,17,51,4.30
2015,12,18,17,52,4.30
2015,12,18,17,53,4.30
2015,12,18,17,54,4.30
2015,12,18,17,56,4.40
2015,12,18,17,57,4.40
2015,12,18,17,58,4.40
2015,12,18,17,59,4.40
2015,12,18,18,00,4.40
2015,12,18,18,01,4.40
2015,12,18,18,02,4.40
2015,12,18,18,03,4.40
2015,12,18,18,04,4.40
2015,12,18,18,06,4.40
2015,12,18,18,07,4.30
2015,12,18,18,08,4.30
2015,12,18,18,09,4.30
2015,12,18,18,10,4.30
2015,12,18,18,11,4.20
2015,12,18,18,12,4.20
2015,12,18,18,13,4.20
2015,12,18,18,14,4.20
2015,12,18,18,15,4.20
2015,12,18,18,16,4.20
2015,12,18,18,17,4.20
2015,12,18,18,18,4.20
2015,12,18,18,19,4.20
2015,12,18,18,20,4.20
2015,12,18,18,21,4.20
2015,12,18,18,22,4.20
2015,12,18,18,23,4.20
2015,12,18,18,24,4.20
2015,12,18,18,25,4.20
2015,12,18,18,26,4.10
2015,12,18,18,27,4.10
2015,12,18,18,28,4.10
2015,12,18,18,29,4.00
2015,12,18,18,30,4.00
2015,12,18,18,31,4.00
2015,12,18,18,32,3.90
2015,12,18,18,33,3.90
2015,12,18,18,34,3.80
2015,12,18,18,35,3.80
2015,12,18,18,36,3.80
2015,12,18,18,37,3.80
2015,12,18,18,38,3.70
2015,12,18,18,39,3.70
2015,12,18,18,40,3.70
2015,12,18,18,41,3.70
2015,12,18,18,42,3.60
2015,12,18,18,43,3.60
2015,12,18,18,44,3.60
2015,12,18,18,45,3.60
2015,12,18,18,46,3.60
2015,12,18,18,47,3.70
2015,12,18,18,48,3.70
2015,12,18,18,49,3.70
2015,12,18,18,50,3.80
2015,12,18,18,51,3.80
2015,12,18,18,52,3.80
2015,12,18,18,53,3.80
2015,12,18,18,54,3.80
2015,12,18,18,55,3.80
2015,12,18,18,56,3.80
2015,12,18,18,57,3.80
2015,12,18,18,58,3.90
2015,12,18,18,59,3.90
2015,12,18,19,00,4.00
2015,12,18,19,01,4.00
2015,12,18,19,02,4.00
2015,12,18,19,03,4.00
2015,12,18,19,04,4.00
2015,12,18,19,05,4.00
2015,12,18,19,06,4.00
2015,12,18,19,07,4.00
2015,12,18,19,08,4.00
2015,12,18,19,09,4.00
2015,12,18,19,10,4.00
2015,12,18,19,11,4.00
2015,12,18,19,12,4.00
2015,12,18,19,13,4.00
2015,12,18,19,14,4.00
2015,12,18,19,15,4.00
2015,12,18,19,16,4.00
2015,12,18,19,17,4.00
2015,12,18,19,18,4.00
2015,12,18,19,19,4.00
2015,12,18,19,20,4.00
2015,12,18,19,21,4.00
2015,12,18,19,22,4.00
2015,12,18,19,23,4.00
2015,12,18,19,24,3.90
2015,12,18,19,25,3.90
2015,12,18,19,26,3.90
2015,12,18,19,27,3.90
2015,12,18,19,28,3.90
2015,12,18,19,29,3.90
2015,12,18,19,30,3.80
2015,12,18,19,32,3.80
2015,12,18,19,33,3.80
2015,12,18,19,34,3.80
2015,12,18,19,36,3.80
2015,12,18,19,37,3.80
2015,12,18,19,38,3.80
2015,12,18,19,39,3.90
2015,12,18,19,41,4.10
2015,12,18,19,42,4.10
2015,12,18,19,43,4.20
2015,12,18,19,44,4.20
2015,12,18,19,46,4.50
2015,12,18,19,47,4.60
2015,12,18,19,48,4.60
2015,12,18,19,49,4.80
2015,12,18,19,51,5.10
2015,12,18,19,52,5.20
2015,12,18,19,53,5.30
2015,12,18,19,54,5.30
2015,12,18,19,56,5.40
2015,12,18,19,57,5.40
2015,12,18,19,58,5.40
2015,12,18,19,59,5.50
2015,12,18,20,01,5.60
2015,12,18,20,02,5.70
2015,12,18,20,03,5.70
2015,12,18,20,04,5.70
2015,12,18,20,06,5.70
2015,12,18,20,07,5.80
2015,12,18,20,08,5.80
2015,12,18,20,09,5.90
2015,12,18,20,11,5.90
2015,12,18,20,12,5.90
2015,12,18,20,13,5.90
2015,12,18,20,14,6.00
2015,12,18,20,16,6.00
2015,12,18,20,17,6.00
2015,12,18,20,18,6.00
2015,12,18,20,19,6.00